Flag for Morocco Weather past 2 weeks in Rabat, Morocco

Now
68 °F

Fog.


Feels Like: 68 °F
Forecast: 58 / 72 °F
Wind: 1 mph from West

Location: Rabat-Sale

Current Time: Apr 2, 2015 at 11:35:35 AM

Latest Report: Apr 2, 2015 at 11:00 AM


Visibility: 3 mi

Pressure: 30.09 "Hg

Humidity: 88%

Dew point: 64 °F

Location of RabatLocation

Historic Weather in Rabat — Graph

°F

Rabat temperature yesterday

Maximum temperature yesterday: 70 °F (at 1:30 PM)
Minimum temperature yesterday: 52 °F (at 2:00 AM)
Average temperature yesterday: 61 °F

Past Weeks' High & Low Weather Summary

 TemperatureHumidityPressure
High70 °F (Mar 29, 4:00 PM)100% (Mar 20, 3:00 AM)30.39 "Hg (Mar 20, 3:00 AM)
Low45 °F (Mar 20, 6:30 AM)52% (Mar 18, 12:30 PM)29.68 "Hg (Mar 20, 2:30 AM)
Average57 °F81%30.01 "Hg
* Reported Mar 18 9:00 AM — Apr 2 10:30 AM, Rabat, Weather by CustomWeather, © 2015

Note: Actual official high and low records may vary slightly from our data, if they occured in-between our weather recording intervals... More about our weather records

Advertising

Rabat weather history for previous 24 hours

 ConditionsComfort  
Time TempWeatherWind HumidityBarometerVisibility
10:30 AM
Thu, Apr 2
66 °FFog.1 mph94%30.09 "Hg2 mi
10:00 AM63 °FFog.1 mph100%30.09 "Hg1 mi
9:30 AM61 °FFog.2 mph94%30.09 "Hg1 mi
9:00 AM59 °FFog.2 mph100%30.09 "Hg0 mi
8:30 AM55 °FFog.2 mph100%30.09 "Hg0 mi
8:00 AM54 °FFog.2 mph100%30.07 "Hg0 mi
7:30 AM54 °FFog.No wind94%30.07 "Hg1 mi
7:00 AM54 °FFog.No wind94%30.07 "Hg1 mi
6:30 AM55 °FFog.No wind94%30.04 "Hg2 mi
6:00 AM57 °FFog.2 mph94%30.04 "Hg1 mi
5:30 AM55 °FFog.No wind94%30.04 "Hg1 mi
5:00 AM55 °FFog.No wind94%30.04 "Hg1 mi
4:30 AM55 °FFog.No wind94%30.04 "Hg1 mi
4:00 AM55 °FFog.No wind94%30.04 "Hg1 mi
3:30 AM55 °FPassing clouds.No wind94%30.07 "Hg3 mi
3:00 AM57 °FPassing clouds.No wind94%30.07 "Hg3 mi
2:30 AM57 °FPassing clouds.No wind94%30.07 "Hg3 mi
2:00 AM59 °FPassing clouds.No wind94%30.07 "Hg3 mi
1:30 AM57 °FPassing clouds.2 mph94%30.09 "Hg3 mi
1:00 AM57 °FPassing clouds.3 mph94%30.09 "Hg3 mi
12:30 AM57 °FPassing clouds.2 mph94%30.09 "Hg3 mi
12:00 AM57 °FPassing clouds.1 mph94%30.09 "Hg3 mi
11:30 PM
Wed, Apr 1
57 °FPassing clouds.2 mph94%30.12 "Hg3 mi
11:00 PM57 °FPassing clouds.1 mph94%30.12 "Hg3 mi
10:30 PM59 °FPassing clouds.No wind88%30.12 "Hg3 mi
10:00 PM59 °FPassing clouds.No wind88%30.12 "Hg3 mi
9:30 PM59 °FPassing clouds.No wind94%30.12 "Hg3 mi
9:00 PM61 °FPassing clouds.No wind88%30.09 "Hg3 mi
8:30 PM63 °FPassing clouds.2 mph83%30.09 "Hg3 mi
8:00 PM63 °FPassing clouds.3 mph88%30.09 "Hg3 mi
7:30 PM64 °FPassing clouds.3 mph83%30.09 "Hg3 mi
7:00 PM66 °FPassing clouds.6 mph78%30.09 "Hg3 mi
6:30 PM68 °FFog.7 mph73%30.09 "Hg2 mi
6:00 PM70 °FFog.7 mph73%30.09 "Hg2 mi
5:30 PM68 °FFog.7 mph78%30.09 "Hg2 mi
5:00 PM68 °FFog.8 mph78%30.09 "Hg2 mi
4:30 PM68 °FFog.7 mph78%30.09 "Hg2 mi
4:00 PM68 °FFog.6 mph78%30.09 "Hg2 mi
3:00 PM68 °FFog.7 mph78%30.12 "Hg2 mi
2:30 PM68 °FFog.8 mph73%30.12 "Hg2 mi
2:00 PM70 °FPassing clouds.6 mph73%30.15 "Hg3 mi
1:30 PM70 °FPassing clouds.5 mph73%30.15 "Hg3 mi
1:00 PM66 °FPassing clouds.6 mph83%30.15 "Hg3 mi
12:30 PM68 °FPassing clouds.9 mph78%30.18 "Hg3 mi
12:04 PM68 °FPassing clouds.10 mph78%30.18 "Hg3 mi
11:30 AM68 °FPassing clouds.2 mph78%30.18 "Hg5 mi
11:00 AM64 °FScattered clouds.2 mph88%30.18 "Hg3 mi
Weather by CustomWeather, © 2015

See weather overviewHow to use our weather pages